SQ3X-13 Weather Reports


time (UTC)temp
F
wind
direction
speed
knots
gust
knots
rain 1hr
in
rain 24hr
in
rain mn
in
humidity
%
barometer
mb
20260508023003 46 20 5.2 712.6 0.00 0.00 0.00 7 1011.6
20260508022003 46 20 5.2 443.2 0.00 0.00 0.00 7 1011.7
20260508021003 47 14 5.2 443.2 0.00 0.00 0.00 8 1011.6
20260508020005 47 14 5.2 275.5 0.00 0.00 0.00 8 1011.6
20260508015003 47 14 5.2 275.5 0.00 0.00 0.00 8 1011.6
20260508014003 47 14 5.2 171.2 0.00 0.00 0.00 8 1011.6
20260508013003 47 14 5.2 171.2 0.00 0.00 0.00 8 1011.6
20260508012003 47 14 5.2 106.9 0.00 0.00 0.00 8 1011.6
20260508011003 48 12 4.3 106.9 0.00 0.00 0.00 8 1011.6
20260508010003 48 12 4.3 66.9 0.00 0.00 0.00 8 1011.8
20260508005003 48 12 4.3 66.9 0.00 0.00 0.00 8 1011.6
20260508004002 48 12 4.3 41.7 0.00 0.00 0.00 8 1011.7
20260508003005 48 12 4.3 41.7 0.00 0.00 0.00 8 1011.7
20260508002002 48 354 4.3 26.1 0.00 0.00 0.00 8 1011.6
20260508001004 48 354 4.3 26.1 0.00 0.00 0.00 8 1011.7
20260508000003 48 354 4.3 16.5 0.00 0.00 0.00 8 1011.7
20260507235003 48 354 4.3 16.5 0.00 0.00 0.00 8 1011.7
20260507234003 48 354 4.3 121.7 0.00 0.00 0.00 8 1011.5
20260507233002 48 354 4.3 121.7 0.00 0.00 0.00 8 1011.5
20260507232002 48 345 4.3 121.7 0.00 0.00 0.00 8 1011.5
20260507231003 48 345 4.3 121.7 0.00 0.00 0.00 8 1011.6
20260507230003 48 345 4.3 121.7 0.00 0.00 0.00 8 1011.5
20260507225004 48 345 4.3 121.7 0.00 0.00 0.00 8 1011.5
20260507224003 48 345 4.3 121.7 0.00 0.00 0.00 8 1011.6
20260507223003 48 345 4.3 121.7 0.00 0.00 0.00 8 1011.6
20260507222003 48 336 4.3 757.7 0.00 0.00 0.00 8 1011.7
20260507221003 48 336 4.3 757.7 0.00 0.00 0.00 8 1011.4
20260507220003 48 336 4.3 471.0 0.00 0.00 0.00 8 1011.4
20260507215004 48 336 4.3 471.0 0.00 0.00 0.00 8 1011.3
20260507214003 48 336 4.3 292.8 0.00 0.00 0.00 8 1011.5
20260507213003 48 336 4.3 182.5 0.00 0.00 0.00 8 1011.3
20260507210002 49 341 4.3 113.8 0.00 0.00 0.00 8 1011.1
20260507205004 49 341 4.3 113.8 0.00 0.00 0.00 8 1011.0
20260507204018 49 341 4.3 71.3 0.00 0.00 0.00 8 1011.0
20260507203002 49 341 4.3 71.3 0.00 0.00 0.00 8 1010.8
20260507201002 51 9 4.3 44.3 0.00 0.00 0.00 7 1010.5
20260507200002 51 9 4.3 44.3 0.00 0.00 0.00 7 1010.5
20260507195002 51 9 4.3 27.8 0.00 0.00 0.00 7 1010.6
20260507194004 51 9 4.3 17.4 0.00 0.00 0.00 7 1010.4
20260507193002 51 9 4.3 17.4 0.00 0.00 0.00 7 1010.4
20260507192002 51 9 4.3 103.4 0.00 0.00 0.00 7 1010.3
20260507191003 51 359 5.2 103.4 0.00 0.00 0.00 7 1010.1
20260507190004 51 359 5.2 103.4 0.00 0.00 0.00 7 1010.2
20260507185002 51 359 5.2 103.4 0.00 0.00 0.00 7 1010.2
20260507184002 51 359 5.2 103.4 0.00 0.00 0.00 7 1010.1
20260507183002 51 359 5.2 103.4 0.00 0.00 0.00 7 1010.3
20260507182002 51 359 5.2 103.4 0.00 0.00 0.00 7 1010.0
20260507181002 52 3 6.1 643.0 0.00 0.00 0.00 7 1009.8
20260507180002 52 3 6.1 399.7 0.00 0.00 0.00 7 1009.6
20260507175002 52 3 6.1 399.7 0.00 0.00 0.00 7 1009.7
20260507174002 52 3 6.1 248.5 0.00 0.00 0.00 7 1009.4
20260507173002 52 3 6.1 248.5 0.00 0.00 0.00 7 1009.4
20260507172003 52 3 6.1 154.7 0.00 0.00 0.00 7 1009.0
20260507171003 53 8 6.1 96.5 0.00 0.00 0.00 7 1008.9
20260507170004 53 8 6.1 96.5 0.00 0.00 0.00 7 1008.8
20260507165002 53 8 6.1 60.0 0.00 0.00 0.00 7 1008.7
20260507164003 52 14 6.1 37.4 0.00 0.00 0.00 7 1008.5
20260507163003 52 14 6.1 23.5 0.00 0.00 0.00 7 1008.5
20260507162004 52 14 6.1 14.8 0.00 0.00 0.00 7 1008.6
20260507161002 52 14 6.1 14.8 0.00 0.00 0.00 7 1008.5
20260507160002 52 14 6.1 94.7 0.00 0.00 0.00 7 1008.6
20260507155004 52 14 6.1 94.7 0.00 0.00 0.00 7 1008.6
20260507154003 52 21 5.2 94.7 0.00 0.00 0.00 7 1008.6
20260507153002 52 21 5.2 94.7 0.00 0.00 0.00 7 1008.8
20260507152003 52 21 5.2 94.7 0.00 0.00 0.00 7 1008.7
20260507151003 52 21 5.2 94.7 0.00 0.00 0.00 7 1008.5
20260507150002 52 21 5.2 94.7 0.00 0.00 0.00 7 1008.5
20260507145003 52 21 5.2 94.7 0.00 0.00 0.00 7 1008.3
20260507144001 52 22 6.1 590.9 0.00 0.00 0.00 8 1008.5
20260507143002 52 22 6.1 367.6 0.00 0.00 0.00 8 1008.5
20260507142002 52 22 6.1 228.5 0.00 0.00 0.00 8 1008.4
20260507141002 52 22 6.1 142.5 0.00 0.00 0.00 8 1008.6
20260507140002 52 22 6.1 88.6 0.00 0.00 0.00 8 1008.6
20260507135003 52 22 6.1 88.6 0.00 0.00 0.00 8 1008.5
20260507134002 52 22 6.1 55.6 0.00 0.00 0.00 8 1008.6
20260507133002 50 8 7.0 34.8 0.00 0.00 0.00 8 1008.4
20260507132002 50 8 7.0 21.7 0.00 0.00 0.00 8 1008.3
20260507131002 50 8 7.0 21.7 0.00 0.00 0.00 8 1008.1
20260507130003 50 8 7.0 13.9 0.00 0.00 0.00 8 1008.1
20260507125002 50 8 7.0 13.9 0.00 0.00 0.00 8 1008.0
20260507124002 50 8 7.0 8.7 0.00 0.00 0.00 8 1008.0
20260507123002 49 11 7.0 8.7 0.00 0.00 0.00 8 1008.0
20260507122002 49 11 7.0 8.7 0.00 0.00 0.00 8 1007.8
20260507121002 49 11 7.0 94.7 0.00 0.00 0.00 8 1007.7
20260507120002 49 11 7.0 94.7 0.00 0.00 0.00 8 1007.8
20260507115003 49 11 7.0 94.7 0.00 0.00 0.00 8 1007.8
20260507114002 49 11 7.0 94.7 0.00 0.00 0.00 8 1007.8
20260507113002 49 17 7.0 94.7 0.00 0.00 0.00 8 1007.7
20260507112002 49 17 7.0 94.7 0.00 0.00 0.00 8 1007.7
20260507111003 49 17 7.0 94.7 0.00 0.00 0.00 8 1007.5
20260507110002 49 17 7.0 590.9 0.00 0.00 0.00 8 1007.5
20260507105003 49 17 7.0 590.9 0.00 0.00 0.00 8 1007.3
20260507104004 49 17 7.0 367.6 0.00 0.00 0.00 8 1007.0
20260507103001 48 18 6.1 367.6 0.00 0.00 0.00 9 1007.0
20260507102006 48 18 6.1 228.5 0.00 0.00 0.00 9 1006.9
20260507101002 48 18 6.1 228.5 0.00 0.00 0.00 9 1006.8
20260507100003 48 18 6.1 142.5 0.00 0.00 0.00 9 1006.9
20260507095003 48 18 6.1 88.6 0.00 0.00 0.00 9 1006.8
20260507094002 48 18 6.1 55.6 0.00 0.00 0.00 9 1006.6
20260507093002 48 18 6.1 34.8 0.00 0.00 0.00 9 1006.4
20260507092003 48 18 6.1 21.7 0.00 0.00 0.00 9 1006.7
20260507091003 48 18 6.1 21.7 0.00 0.00 0.00 9 1006.5
20260507090002 48 18 6.1 13.9 0.00 0.00 0.00 9 1006.2
20260507085002 48 18 6.1 13.9 0.00 0.00 0.00 9 1006.1
20260507084002 48 18 6.1 8.7 0.00 0.00 0.00 9 1005.9
20260507083002 48 18 6.1 126.0 0.00 0.00 0.00 9 1005.7
20260507082002 47 24 7.0 126.0 0.00 0.00 0.00 9 1005.7
20260507081002 47 24 7.0 126.0 0.00 0.00 0.00 9 1005.6
20260507080002 47 24 7.0 126.0 0.00 0.00 0.00 9 1005.6
20260507075001 47 24 7.0 126.0 0.00 0.00 0.00 9 1005.4
20260507074002 47 24 7.0 126.0 0.00 0.00 0.00 9 1005.1
20260507073003 47 24 7.0 126.0 0.00 0.00 0.00 9 1005.2
20260507072002 47 352 5.2 126.0 0.00 0.00 0.00 9 1005.1
20260507071004 47 352 5.2 787.3 0.00 0.00 0.00 9 1005.0
20260507070003 47 352 5.2 489.2 0.00 0.00 0.00 9 1004.9
20260507065003 47 352 5.2 304.1 0.00 0.00 0.00 9 1004.8
20260507064002 47 352 5.2 189.4 0.00 0.00 0.00 9 1004.9
20260507063007 47 352 5.2 189.4 0.00 0.00 0.00 9 1004.8
20260507062002 47 350 6.1 118.2 0.00 0.00 0.00 9 1004.6
20260507061002 47 350 6.1 73.9 0.00 0.00 0.00 9 1004.5
20260507060002 47 350 6.1 46.1 0.00 0.00 0.00 9 1004.4
20260507055002 47 350 6.1 46.1 0.00 0.00 0.00 9 1004.3
20260507054002 47 350 6.1 28.7 0.00 0.00 0.00 9 1004.3
20260507053003 47 350 6.1 28.7 0.00 0.00 0.00 9 1004.2
20260507052002 47 359 5.2 18.2 0.00 0.00 0.00 9 1004.2
20260507051002 47 359 5.2 121.7 0.00 0.00 0.00 9 1004.1
20260507050002 47 359 5.2 121.7 0.00 0.00 0.00 9 1004.1
20260507045002 47 359 5.2 121.7 0.00 0.00 0.00 9 1004.0
20260507044002 47 359 5.2 121.7 0.00 0.00 0.00 9 1003.9
20260507043002 47 359 5.2 121.7 0.00 0.00 0.00 9 1003.7
20260507042003 48 357 5.2 121.7 0.00 0.00 0.00 9 1003.7
20260507041002 48 357 5.2 121.7 0.00 0.00 0.00 9 1003.5
20260507040002 48 357 5.2 757.7 0.00 0.00 0.00 9 1003.4
20260507035002 48 357 5.2 757.7 0.00 0.00 0.00 9 1003.3
20260507034003 48 357 5.2 471.0 0.00 0.00 0.00 9 1003.2
20260507033001 48 357 5.2 292.8 0.00 0.00 0.00 9 1003.1
20260507032003 48 357 5.2 292.8 0.00 0.00 0.00 9 1002.8
20260507031001 48 354 5.2 182.5 0.00 0.00 0.00 9 1002.8
20260507030004 48 354 5.2 113.8 0.00 0.00 0.00 9 1002.9
20260507025002 48 354 5.2 71.3 0.00 0.00 0.00 9 1002.8
20260507024002 48 354 5.2 44.3 0.00 0.00 0.00 9 1002.5